contact:dominique.lefevre@mio.osupytheas.fr, maurice.libes@osupytheas.fr, didier.mallarino@osupytheas.fr
Project:EMSO http://www.emso-fr.org/EMSO-France
Depth: 2436.0 m
Title:EMSO Ligure Ouest : Data MII capteur CSTAR
DateTime,Latitude,Longitude,Instrument_Serial,Reference_Counts,Signal_Counts,Corrected_Signal_raw_counts,Calculated_Beam_c_inverse_meters,Internal_thermistor_counts
DateTime,Latitude,Longitude,Instrument_Serial,Reference_Counts,Signal_Counts,Corrected_Signal_raw_counts,Calculated_Beam_c_inverse_meters,Internal_thermistor_counts
2022-07-10T00:00:08,42.805,6.029,CST-1368DR,4666,5172,11808,01.118,551
2022-07-10T00:03:10,42.805,6.029,CST-1368DR,4667,5175,11813,01.116,551
2022-07-10T00:06:11,42.805,6.029,CST-1368DR,4666,5172,11808,01.118,551
2022-07-10T00:09:13,42.805,6.029,CST-1368DR,4667,5175,11813,01.116,551
2022-07-10T00:12:15,42.805,6.029,CST-1368DR,4666,5171,11806,01.119,551
2022-07-10T00:15:16,42.805,6.029,CST-1368DR,4667,5174,11811,01.117,551
2022-07-10T00:18:18,42.805,6.029,CST-1368DR,4667,5174,11811,01.117,551
2022-07-10T00:21:19,42.805,6.029,CST-1368DR,4666,5175,11815,01.116,551
2022-07-10T00:24:21,42.805,6.029,CST-1368DR,4667,5175,11814,01.116,551
2022-07-10T00:27:22,42.805,6.029,CST-1368DR,4666,5179,11825,01.112,551
2022-07-10T00:30:24,42.805,6.029,CST-1368DR,4666,5179,11825,01.112,551
2022-07-10T00:33:26,42.805,6.029,CST-1368DR,4666,5185,11839,01.108,551
2022-07-10T00:36:27,42.805,6.029,CST-1368DR,4666,5179,11825,01.112,551
2022-07-10T00:39:29,42.805,6.029,CST-1368DR,4666,5178,11823,01.113,551
2022-07-10T00:42:30,42.805,6.029,CST-1368DR,4666,5182,11831,01.110,551
2022-07-10T00:45:32,42.805,6.029,CST-1368DR,4666,5181,11830,01.111,551
2022-07-10T00:48:34,42.805,6.029,CST-1368DR,4666,5181,11830,01.111,551
2022-07-10T00:51:35,42.805,6.029,CST-1368DR,4666,5181,11830,01.111,551
2022-07-10T00:54:37,42.805,6.029,CST-1368DR,4666,5174,11813,01.116,551
2022-07-10T00:57:38,42.805,6.029,CST-1368DR,4666,5172,11809,01.118,551
2022-07-10T01:00:40,42.805,6.029,CST-1368DR,4666,5177,11821,01.114,551
2022-07-10T01:03:41,42.805,6.029,CST-1368DR,4666,5177,11821,01.114,551
2022-07-10T01:06:43,42.805,6.029,CST-1368DR,4666,5174,11813,01.116,551
2022-07-10T01:09:45,42.805,6.029,CST-1368DR,4666,5181,11830,01.111,551
2022-07-10T01:12:46,42.805,6.029,CST-1368DR,4666,5179,11825,01.112,551
2022-07-10T01:15:48,42.805,6.029,CST-1368DR,4666,5181,11830,01.111,551
2022-07-10T01:18:49,42.805,6.029,CST-1368DR,4666,5176,11818,01.115,551
2022-07-10T01:21:51,42.805,6.029,CST-1368DR,4666,5176,11818,01.115,551
2022-07-10T01:24:53,42.805,6.029,CST-1368DR,4666,5179,11826,01.112,551
2022-07-10T01:27:54,42.805,6.029,CST-1368DR,4666,5182,11831,01.110,551
2022-07-10T01:30:56,42.805,6.029,CST-1368DR,4666,5177,11821,01.114,551
2022-07-10T01:33:57,42.805,6.029,CST-1368DR,4666,5163,11789,01.125,551
2022-07-10T01:36:59,42.805,6.029,CST-1368DR,4666,5179,11825,01.112,551
2022-07-10T01:40:00,42.805,6.029,CST-1368DR,4666,5179,11826,01.112,551
2022-07-10T01:43:02,42.805,6.029,CST-1368DR,4666,5175,11816,01.115,551
2022-07-10T01:46:04,42.805,6.029,CST-1368DR,4666,5176,11818,01.115,551
2022-07-10T01:49:05,42.805,6.029,CST-1368DR,4666,5176,11818,01.115,551
2022-07-10T01:52:07,42.805,6.029,CST-1368DR,4666,5175,11817,01.115,551
2022-07-10T01:55:08,42.805,6.029,CST-1368DR,4666,5179,11825,01.112,551
2022-07-10T01:58:10,42.805,6.029,CST-1368DR,4666,5176,11818,01.115,551
2022-07-10T02:01:11,42.805,6.029,CST-1368DR,4666,5175,11816,01.115,551
2022-07-10T02:04:13,42.805,6.029,CST-1368DR,4666,5174,11813,01.116,551
2022-07-10T02:07:15,42.805,6.029,CST-1368DR,4666,5169,11802,01.120,551
2022-07-10T02:10:16,42.805,6.029,CST-1368DR,4666,5175,11816,01.115,551
2022-07-10T02:13:18,42.805,6.029,CST-1368DR,4666,5170,11805,01.119,551
2022-07-10T02:16:19,42.805,6.029,CST-1368DR,4666,5177,11821,01.114,551
2022-07-10T02:19:21,42.805,6.029,CST-1368DR,4666,5174,11813,01.116,551
2022-07-10T02:22:23,42.805,6.029,CST-1368DR,4666,5173,11810,01.117,551
2022-07-10T02:25:24,42.805,6.029,CST-1368DR,4666,5167,11797,01.122,551
2022-07-10T02:28:26,42.805,6.029,CST-1368DR,4666,5164,11792,01.123,551
2022-07-10T02:31:27,42.805,6.029,CST-1368DR,4666,5169,11802,01.120,551
2022-07-10T02:34:29,42.805,6.029,CST-1368DR,4666,5168,11800,01.121,551
2022-07-10T02:37:30,42.805,6.029,CST-1368DR,4666,5173,11811,01.117,551
2022-07-10T02:40:32,42.805,6.029,CST-1368DR,4666,5170,11805,01.119,551
2022-07-10T02:43:34,42.805,6.029,CST-1368DR,4666,5168,11801,01.120,551
2022-07-10T02:46:35,42.805,6.029,CST-1368DR,4666,5174,11813,01.116,551
2022-07-10T02:49:37,42.805,6.029,CST-1368DR,4666,5175,11815,01.116,551
2022-07-10T02:52:38,42.805,6.029,CST-1368DR,4666,5172,11810,01.117,551
2022-07-10T02:55:40,42.805,6.029,CST-1368DR,4666,5169,11801,01.120,550
2022-07-10T02:58:41,42.805,6.029,CST-1368DR,4666,5174,11813,01.116,551
2022-07-10T03:01:43,42.805,6.029,CST-1368DR,4666,5173,11812,01.117,551
2022-07-10T03:04:45,42.805,6.029,CST-1368DR,4666,5175,11816,01.115,551
2022-07-10T03:07:46,42.805,6.029,CST-1368DR,4666,5170,11805,01.119,551
2022-07-10T03:10:48,42.805,6.029,CST-1368DR,4666,5172,11808,01.118,551
2022-07-10T03:13:49,42.805,6.029,CST-1368DR,4666,5170,11805,01.119,551
2022-07-10T03:16:51,42.805,6.029,CST-1368DR,4666,5174,11813,01.116,551
2022-07-10T03:19:53,42.805,6.029,CST-1368DR,4666,5173,11810,01.117,551
2022-07-10T03:22:54,42.805,6.029,CST-1368DR,4666,5168,11800,01.121,551
2022-07-10T03:25:56,42.805,6.029,CST-1368DR,4666,5148,11755,01.136,551
2022-07-10T03:28:57,42.805,6.029,CST-1368DR,4666,5157,11774,01.130,551
2022-07-10T03:31:59,42.805,6.029,CST-1368DR,4666,5176,11819,01.114,551
2022-07-10T03:35:00,42.805,6.029,CST-1368DR,4666,5174,11814,01.116,551
2022-07-10T03:38:02,42.805,6.029,CST-1368DR,4666,5165,11794,01.123,551
2022-07-10T03:41:04,42.805,6.029,CST-1368DR,4666,5171,11806,01.119,551
2022-07-10T03:44:05,42.805,6.029,CST-1368DR,4666,5161,11784,01.126,551
2022-07-10T03:47:07,42.805,6.029,CST-1368DR,4666,5159,11780,01.128,551
2022-07-10T03:50:08,42.805,6.029,CST-1368DR,4666,5169,11802,01.120,551
2022-07-10T03:53:10,42.805,6.029,CST-1368DR,4666,5174,11814,01.116,551
2022-07-10T03:56:11,42.805,6.029,CST-1368DR,4666,5174,11813,01.116,551
2022-07-10T03:59:13,42.805,6.029,CST-1368DR,4666,5163,11788,01.125,551
2022-07-10T04:02:15,42.805,6.029,CST-1368DR,4666,5165,11793,01.123,551
2022-07-10T04:05:16,42.805,6.029,CST-1368DR,4666,5168,11800,01.121,551
2022-07-10T04:08:18,42.805,6.029,CST-1368DR,4666,5161,11784,01.126,551
2022-07-10T04:11:19,42.805,6.029,CST-1368DR,4666,5169,11803,01.120,551
2022-07-10T04:14:21,42.805,6.029,CST-1368DR,4666,5167,11798,01.121,551
2022-07-10T04:17:23,42.805,6.029,CST-1368DR,4666,5154,11768,01.132,551
2022-07-10T04:20:24,42.805,6.029,CST-1368DR,4666,5169,11801,01.120,551
2022-07-10T04:23:26,42.805,6.029,CST-1368DR,4666,5169,11802,01.120,551
2022-07-10T04:26:27,42.805,6.029,CST-1368DR,4666,5161,11785,01.126,551
2022-07-10T04:29:29,42.805,6.029,CST-1368DR,4666,5166,11796,01.122,551
2022-07-10T04:32:30,42.805,6.029,CST-1368DR,4666,5161,11783,01.127,551
2022-07-10T04:35:32,42.805,6.029,CST-1368DR,4666,5158,11778,01.128,551
2022-07-10T04:38:34,42.805,6.029,CST-1368DR,4666,5165,11794,01.123,551
2022-07-10T04:41:35,42.805,6.029,CST-1368DR,4666,5154,11768,01.132,551
2022-07-10T04:44:37,42.805,6.029,CST-1368DR,4666,5162,11785,01.126,551
2022-07-10T04:47:38,42.805,6.029,CST-1368DR,4666,5174,11813,01.116,551
2022-07-10T04:50:40,42.805,6.029,CST-1368DR,4666,5163,11788,01.125,551
2022-07-10T04:53:41,42.805,6.029,CST-1368DR,4666,5165,11794,01.123,551
2022-07-10T04:56:43,42.805,6.029,CST-1368DR,4666,5169,11803,01.120,551
2022-07-10T04:59:45,42.805,6.029,CST-1368DR,4666,5167,11798,01.121,551
2022-07-10T05:02:46,42.805,6.029,CST-1368DR,4666,5168,11800,01.121,551
2022-07-10T05:05:48,42.805,6.029,CST-1368DR,4666,5170,11804,01.119,551
2022-07-10T05:08:49,42.805,6.029,CST-1368DR,4666,5164,11790,01.124,551
2022-07-10T05:11:51,42.805,6.029,CST-1368DR,4666,5166,11794,01.123,551
2022-07-10T05:14:53,42.805,6.029,CST-1368DR,4666,5165,11793,01.123,551
2022-07-10T05:17:54,42.805,6.029,CST-1368DR,4666,5163,11789,01.125,551
2022-07-10T05:20:56,42.805,6.029,CST-1368DR,4666,5159,11778,01.128,551
2022-07-10T05:23:57,42.805,6.029,CST-1368DR,4666,5158,11777,01.129,551
2022-07-10T05:26:59,42.805,6.029,CST-1368DR,4666,5157,11775,01.129,551
2022-07-10T05:30:00,42.805,6.029,CST-1368DR,4666,5155,11770,01.131,551
2022-07-10T05:33:02,42.805,6.029,CST-1368DR,4666,5166,11794,01.123,551
2022-07-10T05:36:04,42.805,6.029,CST-1368DR,4666,5153,11766,01.132,551
2022-07-10T05:39:05,42.805,6.029,CST-1368DR,4666,5155,11770,01.131,551
2022-07-10T05:42:07,42.805,6.029,CST-1368DR,4666,5157,11776,01.129,551
2022-07-10T05:45:08,42.805,6.029,CST-1368DR,4666,5154,11768,01.132,551
2022-07-10T05:48:10,42.805,6.029,CST-1368DR,4666,5147,11751,01.137,551
2022-07-10T05:51:12,42.805,6.029,CST-1368DR,4666,5149,11757,01.135,551
2022-07-10T05:54:13,42.805,6.029,CST-1368DR,4666,5147,11752,01.137,551
2022-07-10T05:57:15,42.805,6.029,CST-1368DR,4666,5159,11780,01.128,551
2022-07-10T06:00:16,42.805,6.029,CST-1368DR,4666,5145,11747,01.139,551
2022-07-10T06:03:18,42.805,6.029,CST-1368DR,4666,5138,11730,01.145,551
2022-07-10T06:06:19,42.805,6.029,CST-1368DR,4666,5145,11747,01.139,551
2022-07-10T06:09:21,42.805,6.029,CST-1368DR,4666,5155,11770,01.131,551
2022-07-10T06:12:23,42.805,6.029,CST-1368DR,4666,5147,11752,01.137,551
2022-07-10T06:15:24,42.805,6.029,CST-1368DR,4666,5144,11746,01.139,551
2022-07-10T06:18:26,42.805,6.029,CST-1368DR,4666,5153,11765,01.133,551
2022-07-10T06:21:27,42.805,6.029,CST-1368DR,4666,5150,11760,01.134,551
2022-07-10T06:24:29,42.805,6.029,CST-1368DR,4666,5149,11756,01.136,551
2022-07-10T06:27:30,42.805,6.029,CST-1368DR,4666,5149,11756,01.136,551
2022-07-10T06:30:32,42.805,6.029,CST-1368DR,4666,5151,11761,01.134,551
2022-07-10T06:33:34,42.805,6.029,CST-1368DR,4666,5156,11772,01.130,551
2022-07-10T06:36:35,42.805,6.029,CST-1368DR,4666,5148,11754,01.136,551
2022-07-10T06:39:37,42.805,6.029,CST-1368DR,4666,5152,11764,01.133,551
2022-07-10T06:42:38,42.805,6.029,CST-1368DR,4666,5159,11779,01.128,551
2022-07-10T06:45:40,42.805,6.029,CST-1368DR,4666,5146,11749,01.138,551
2022-07-10T06:48:42,42.805,6.029,CST-1368DR,4666,5155,11771,01.131,551
2022-07-10T06:51:43,42.805,6.029,CST-1368DR,4666,5155,11771,01.131,551
2022-07-10T06:54:45,42.805,6.029,CST-1368DR,4666,5153,11765,01.133,551
2022-07-10T06:57:46,42.805,6.029,CST-1368DR,4666,5159,11778,01.128,551
2022-07-10T07:00:48,42.805,6.029,CST-1368DR,4666,5157,11774,01.130,551
2022-07-10T07:03:49,42.805,6.029,CST-1368DR,4666,5149,11757,01.135,551
2022-07-10T07:06:51,42.805,6.029,CST-1368DR,4666,5151,11760,01.134,551
2022-07-10T07:09:53,42.805,6.029,CST-1368DR,4666,5147,11752,01.137,551
2022-07-10T07:12:54,42.805,6.029,CST-1368DR,4666,5152,11763,01.133,551
2022-07-10T07:15:56,42.805,6.029,CST-1368DR,4666,5150,11760,01.134,551
2022-07-10T07:18:57,42.805,6.029,CST-1368DR,4666,5150,11760,01.134,551
2022-07-10T07:21:59,42.805,6.029,CST-1368DR,4666,5149,11757,01.135,551
2022-07-10T07:25:01,42.805,6.029,CST-1368DR,4666,5153,11765,01.133,551
2022-07-10T07:28:02,42.805,6.029,CST-1368DR,4666,5150,11759,01.135,551
2022-07-10T07:31:04,42.805,6.029,CST-1368DR,4666,5148,11753,01.137,551
2022-07-10T07:34:05,42.805,6.029,CST-1368DR,4666,5150,11758,01.135,551
2022-07-10T07:37:07,42.805,6.029,CST-1368DR,4666,5150,11758,01.135,551
2022-07-10T07:40:08,42.805,6.029,CST-1368DR,4666,5149,11757,01.135,551
2022-07-10T07:43:10,42.805,6.029,CST-1368DR,4666,5148,11753,01.137,551
2022-07-10T07:46:12,42.805,6.029,CST-1368DR,4666,5148,11754,01.136,551
2022-07-10T07:49:13,42.805,6.029,CST-1368DR,4666,5150,11759,01.135,551
2022-07-10T07:52:15,42.805,6.029,CST-1368DR,4666,5145,11748,01.138,551
2022-07-10T07:55:16,42.805,6.029,CST-1368DR,4666,5148,11754,01.136,551
2022-07-10T07:58:18,42.805,6.029,CST-1368DR,4666,5148,11754,01.136,551
2022-07-10T08:01:19,42.805,6.029,CST-1368DR,4666,5151,11761,01.134,551
2022-07-10T08:04:21,42.805,6.029,CST-1368DR,4666,5148,11754,01.136,551
2022-07-10T08:07:23,42.805,6.029,CST-1368DR,4666,5142,11741,01.141,551
2022-07-10T08:10:24,42.805,6.029,CST-1368DR,4666,5143,11742,01.140,551
2022-07-10T08:13:26,42.805,6.029,CST-1368DR,4666,5145,11747,01.139,551
2022-07-10T08:16:27,42.805,6.029,CST-1368DR,4666,5148,11754,01.136,551
2022-07-10T08:19:29,42.805,6.029,CST-1368DR,4666,5143,11742,01.140,551
2022-07-10T08:22:31,42.805,6.029,CST-1368DR,4666,5138,11732,01.144,551
2022-07-10T08:25:32,42.805,6.029,CST-1368DR,4666,5145,11747,01.139,551
2022-07-10T08:28:34,42.805,6.029,CST-1368DR,4666,5148,11754,01.136,551
2022-07-10T08:31:35,42.805,6.029,CST-1368DR,4666,5148,11753,01.137,551
2022-07-10T08:34:37,42.805,6.029,CST-1368DR,4666,5144,11746,01.139,551
2022-07-10T08:37:38,42.805,6.029,CST-1368DR,4666,5148,11754,01.136,551
2022-07-10T08:40:40,42.805,6.029,CST-1368DR,4666,5147,11751,01.137,551
2022-07-10T08:43:42,42.805,6.029,CST-1368DR,4666,5148,11754,01.136,551
2022-07-10T08:46:43,42.805,6.029,CST-1368DR,4666,5138,11731,01.144,551
2022-07-10T08:49:45,42.805,6.029,CST-1368DR,4666,5142,11740,01.141,551
2022-07-10T08:52:46,42.805,6.029,CST-1368DR,4666,5147,11752,01.137,551
2022-07-10T08:55:48,42.805,6.029,CST-1368DR,4666,5148,11753,01.137,551
2022-07-10T08:58:49,42.805,6.029,CST-1368DR,4666,5151,11761,01.134,551
2022-07-10T09:01:51,42.805,6.029,CST-1368DR,4666,5150,11758,01.135,551
2022-07-10T09:04:53,42.805,6.029,CST-1368DR,4666,5148,11754,01.136,551
2022-07-10T09:07:54,42.805,6.029,CST-1368DR,4666,5149,11756,01.136,551
2022-07-10T09:10:56,42.805,6.029,CST-1368DR,4666,5152,11764,01.133,551
2022-07-10T09:13:57,42.805,6.029,CST-1368DR,4666,5151,11762,01.134,551
2022-07-10T09:16:59,42.805,6.029,CST-1368DR,4666,5157,11776,01.129,551
2022-07-10T09:20:01,42.805,6.029,CST-1368DR,4666,5150,11758,01.135,551
2022-07-10T09:23:02,42.805,6.029,CST-1368DR,4666,5152,11762,01.134,551
2022-07-10T09:26:04,42.805,6.029,CST-1368DR,4666,5155,11769,01.131,551
2022-07-10T09:29:05,42.805,6.029,CST-1368DR,4666,5156,11772,01.130,551
2022-07-10T09:32:07,42.805,6.029,CST-1368DR,4666,5158,11776,01.129,551
2022-07-10T09:35:08,42.805,6.029,CST-1368DR,4666,5158,11778,01.128,551
2022-07-10T09:38:10,42.805,6.029,CST-1368DR,4666,5158,11777,01.129,551
2022-07-10T09:41:12,42.805,6.029,CST-1368DR,4666,5162,11785,01.126,550
2022-07-10T09:44:13,42.805,6.029,CST-1368DR,4666,5163,11789,01.125,551
2022-07-10T09:47:15,42.805,6.029,CST-1368DR,4666,5157,11776,01.129,551
2022-07-10T09:50:16,42.805,6.029,CST-1368DR,4666,5158,11777,01.129,551
2022-07-10T09:53:18,42.805,6.029,CST-1368DR,4666,5155,11770,01.131,551
2022-07-10T09:56:19,42.805,6.029,CST-1368DR,4666,5153,11766,01.132,551
2022-07-10T09:59:21,42.805,6.029,CST-1368DR,4666,5152,11763,01.133,551
2022-07-10T10:02:23,42.805,6.029,CST-1368DR,4666,5157,11774,01.130,551
2022-07-10T10:05:24,42.805,6.029,CST-1368DR,4666,5152,11764,01.133,551
2022-07-10T10:08:26,42.805,6.029,CST-1368DR,4666,5156,11773,01.130,551
2022-07-10T10:11:27,42.805,6.029,CST-1368DR,4666,5154,11769,01.131,551
2022-07-10T10:14:29,42.805,6.029,CST-1368DR,4666,5158,11777,01.129,551
2022-07-10T10:17:31,42.805,6.029,CST-1368DR,4666,5154,11769,01.131,551
2022-07-10T10:20:32,42.805,6.029,CST-1368DR,4666,5148,11754,01.136,551
2022-07-10T10:23:34,42.805,6.029,CST-1368DR,4666,5153,11765,01.133,550
2022-07-10T10:26:35,42.805,6.029,CST-1368DR,4666,5146,11749,01.138,551
2022-07-10T10:29:37,42.805,6.029,CST-1368DR,4666,5153,11765,01.133,551
2022-07-10T10:32:38,42.805,6.029,CST-1368DR,4666,5151,11762,01.134,551
2022-07-10T10:35:40,42.805,6.029,CST-1368DR,4666,5154,11768,01.132,550
2022-07-10T10:38:42,42.805,6.029,CST-1368DR,4666,5171,11807,01.118,551
2022-07-10T10:41:43,42.805,6.029,CST-1368DR,4665,5150,11761,01.134,551
2022-07-10T10:44:45,42.805,6.029,CST-1368DR,4666,5152,11762,01.134,551
2022-07-10T10:47:46,42.805,6.029,CST-1368DR,4666,5149,11757,01.135,551
2022-07-10T10:50:48,42.805,6.029,CST-1368DR,4666,5145,11747,01.139,551
2022-07-10T10:53:50,42.805,6.029,CST-1368DR,4666,5146,11750,01.138,551
2022-07-10T10:56:51,42.805,6.029,CST-1368DR,4666,5151,11761,01.134,551
2022-07-10T10:59:53,42.805,6.029,CST-1368DR,4666,5147,11751,01.137,551
2022-07-10T11:02:54,42.805,6.029,CST-1368DR,4666,5148,11754,01.136,551
2022-07-10T11:05:56,42.805,6.029,CST-1368DR,4666,5150,11759,01.135,551
2022-07-10T11:08:57,42.805,6.029,CST-1368DR,4666,5148,11753,01.137,551
2022-07-10T11:11:59,42.805,6.029,CST-1368DR,4666,5149,11757,01.135,551
2022-07-10T11:15:01,42.805,6.029,CST-1368DR,4665,5141,11740,01.141,551
2022-07-10T11:18:02,42.805,6.029,CST-1368DR,4666,5147,11752,01.137,551
2022-07-10T11:21:04,42.805,6.029,CST-1368DR,4666,5147,11753,01.137,551
2022-07-10T11:24:05,42.805,6.029,CST-1368DR,4666,5149,11757,01.135,551
2022-07-10T11:27:07,42.805,6.029,CST-1368DR,4666,5149,11757,01.135,551
2022-07-10T11:30:08,42.805,6.029,CST-1368DR,4666,5149,11756,01.136,551
2022-07-10T11:33:10,42.805,6.029,CST-1368DR,4666,5147,11752,01.137,551
2022-07-10T11:36:12,42.805,6.029,CST-1368DR,4666,5147,11753,01.137,551
2022-07-10T11:39:13,42.805,6.029,CST-1368DR,4665,5145,11749,01.138,551
2022-07-10T11:42:15,42.805,6.029,CST-1368DR,4666,5149,11757,01.135,551
2022-07-10T11:45:16,42.805,6.029,CST-1368DR,4666,5145,11748,01.138,551
2022-07-10T11:48:18,42.805,6.029,CST-1368DR,4666,5147,11752,01.137,551
2022-07-10T11:51:20,42.805,6.029,CST-1368DR,4665,5141,11740,01.141,551
2022-07-10T11:54:21,42.805,6.029,CST-1368DR,4665,5145,11751,01.137,551
2022-07-10T11:57:23,42.805,6.029,CST-1368DR,4665,5144,11747,01.139,551
2022-07-10T12:00:24,42.805,6.029,CST-1368DR,4665,5145,11749,01.138,551
2022-07-10T12:03:26,42.805,6.029,CST-1368DR,4666,5149,11757,01.135,551
2022-07-10T12:06:27,42.805,6.029,CST-1368DR,4665,5143,11744,01.140,551
2022-07-10T12:09:29,42.805,6.029,CST-1368DR,4665,5138,11735,01.143,551
2022-07-10T12:12:31,42.805,6.029,CST-1368DR,4665,5133,11723,01.147,551
2022-07-10T12:15:32,42.805,6.029,CST-1368DR,4665,5138,11733,01.144,551
2022-07-10T12:18:34,42.805,6.029,CST-1368DR,4665,5146,11752,01.137,550
2022-07-10T12:21:35,42.805,6.029,CST-1368DR,4665,5138,11734,01.143,551
2022-07-10T12:24:37,42.805,6.029,CST-1368DR,4665,5141,11740,01.141,551
2022-07-10T12:27:39,42.805,6.029,CST-1368DR,4665,5141,11740,01.141,551
2022-07-10T12:30:40,42.805,6.029,CST-1368DR,4665,5146,11751,01.137,551
2022-07-10T12:33:42,42.805,6.029,CST-1368DR,4665,5142,11742,01.140,551
2022-07-10T12:36:43,42.805,6.029,CST-1368DR,4665,5138,11735,01.143,551
2022-07-10T12:39:45,42.805,6.029,CST-1368DR,4665,5140,11738,01.142,551
2022-07-10T12:42:46,42.805,6.029,CST-1368DR,4665,5133,11721,01.148,551
2022-07-10T12:45:48,42.805,6.029,CST-1368DR,4665,5137,11732,01.144,551
2022-07-10T12:48:50,42.805,6.029,CST-1368DR,4665,5135,11728,01.145,551
2022-07-10T12:51:51,42.805,6.029,CST-1368DR,4665,5139,11735,01.143,551
2022-07-10T12:54:53,42.805,6.029,CST-1368DR,4665,5139,11736,01.143,551
2022-07-10T12:57:54,42.805,6.029,CST-1368DR,4665,5141,11740,01.141,551
2022-07-10T13:00:56,42.805,6.029,CST-1368DR,4665,5150,11761,01.134,551
2022-07-10T13:03:57,42.805,6.029,CST-1368DR,4665,5145,11749,01.138,551
2022-07-10T13:06:59,42.805,6.029,CST-1368DR,4665,5142,11743,01.140,551
2022-07-10T13:10:01,42.805,6.029,CST-1368DR,4665,5141,11740,01.141,551
2022-07-10T13:13:02,42.805,6.029,CST-1368DR,4665,5136,11729,01.145,551
2022-07-10T13:16:04,42.805,6.029,CST-1368DR,4665,5144,11747,01.139,551
2022-07-10T13:19:05,42.805,6.029,CST-1368DR,4665,5143,11746,01.139,551
2022-07-10T13:22:07,42.805,6.029,CST-1368DR,4665,5151,11764,01.133,551
2022-07-10T13:25:09,42.805,6.029,CST-1368DR,4666,5154,11767,01.132,551
2022-07-10T13:28:10,42.805,6.029,CST-1368DR,4665,5150,11761,01.134,551
2022-07-10T13:31:12,42.805,6.029,CST-1368DR,4665,5156,11774,01.130,551
2022-07-10T13:34:13,42.805,6.029,CST-1368DR,4665,5147,11755,01.136,551
2022-07-10T13:37:15,42.805,6.029,CST-1368DR,4665,5157,11777,01.129,551
2022-07-10T13:40:16,42.805,6.029,CST-1368DR,4666,5152,11763,01.133,551
2022-07-10T13:43:18,42.805,6.029,CST-1368DR,4665,5154,11769,01.131,551
2022-07-10T13:46:20,42.805,6.029,CST-1368DR,4665,5138,11734,01.143,551
2022-07-10T13:49:21,42.805,6.029,CST-1368DR,4665,5151,11763,01.133,551
2022-07-10T13:52:23,42.805,6.029,CST-1368DR,4665,5155,11773,01.130,551
2022-07-10T13:55:24,42.805,6.029,CST-1368DR,4665,5156,11775,01.129,551
2022-07-10T13:58:26,42.805,6.029,CST-1368DR,4665,5154,11771,01.131,551
2022-07-10T14:01:27,42.805,6.029,CST-1368DR,4665,5157,11777,01.129,551
2022-07-10T14:04:29,42.805,6.029,CST-1368DR,4665,5145,11749,01.138,551
2022-07-10T14:07:31,42.805,6.029,CST-1368DR,4665,5151,11763,01.133,551
2022-07-10T14:10:32,42.805,6.029,CST-1368DR,4665,5150,11762,01.134,551
2022-07-10T14:13:34,42.805,6.029,CST-1368DR,4665,5158,11779,01.128,551
2022-07-10T14:16:35,42.805,6.029,CST-1368DR,4665,5154,11769,01.131,551
2022-07-10T14:19:37,42.805,6.029,CST-1368DR,4665,5149,11758,01.135,551
2022-07-10T14:22:39,42.805,6.029,CST-1368DR,4665,5158,11779,01.128,551
2022-07-10T14:25:40,42.805,6.029,CST-1368DR,4665,5154,11771,01.131,551
2022-07-10T14:28:42,42.805,6.029,CST-1368DR,4665,5152,11766,01.132,551
2022-07-10T14:31:43,42.805,6.029,CST-1368DR,4665,5152,11765,01.133,551
2022-07-10T14:34:45,42.805,6.029,CST-1368DR,4665,5160,11783,01.127,551
2022-07-10T14:37:46,42.805,6.029,CST-1368DR,4666,5164,11791,01.124,551
2022-07-10T14:40:48,42.805,6.029,CST-1368DR,4666,5164,11790,01.124,551
2022-07-10T14:43:50,42.805,6.029,CST-1368DR,4665,5158,11779,01.128,551
2022-07-10T14:46:51,42.805,6.029,CST-1368DR,4666,5167,11797,01.122,551
2022-07-10T14:49:53,42.805,6.029,CST-1368DR,4666,5172,11810,01.117,551
2022-07-10T14:52:54,42.805,6.029,CST-1368DR,4665,5158,11780,01.128,551
2022-07-10T14:55:56,42.805,6.029,CST-1368DR,4666,5172,11810,01.117,551
2022-07-10T14:58:57,42.805,6.029,CST-1368DR,4666,5159,11778,01.128,551
2022-07-10T15:01:59,42.805,6.029,CST-1368DR,4665,5162,11789,01.125,551
2022-07-10T15:05:01,42.805,6.029,CST-1368DR,4666,5167,11798,01.121,551
2022-07-10T15:08:02,42.805,6.029,CST-1368DR,4665,5162,11788,01.125,551
2022-07-10T15:11:04,42.805,6.029,CST-1368DR,4665,5155,11773,01.130,551
2022-07-10T15:14:05,42.805,6.029,CST-1368DR,4665,5154,11771,01.131,551
2022-07-10T15:17:07,42.805,6.029,CST-1368DR,4666,5173,11812,01.117,551
2022-07-10T15:20:09,42.805,6.029,CST-1368DR,4665,5167,11800,01.121,551
2022-07-10T15:23:10,42.805,6.029,CST-1368DR,4665,5163,11790,01.124,551
2022-07-10T15:26:12,42.805,6.029,CST-1368DR,4665,5165,11795,01.122,551
2022-07-10T15:29:13,42.805,6.029,CST-1368DR,4666,5165,11792,01.123,551
2022-07-10T15:32:15,42.805,6.029,CST-1368DR,4665,5169,11805,01.119,551
2022-07-10T15:35:16,42.805,6.029,CST-1368DR,4665,5158,11780,01.128,551
2022-07-10T15:38:18,42.805,6.029,CST-1368DR,4665,5157,11776,01.129,551
2022-07-10T15:41:20,42.805,6.029,CST-1368DR,4666,5169,11801,01.120,551
2022-07-10T15:44:21,42.805,6.029,CST-1368DR,4665,5160,11785,01.126,551
2022-07-10T15:47:23,42.805,6.029,CST-1368DR,4665,5173,11814,01.116,551
2022-07-10T15:50:24,42.805,6.029,CST-1368DR,4665,5176,11821,01.114,551
2022-07-10T15:53:26,42.805,6.029,CST-1368DR,4665,5159,11781,01.127,551
2022-07-10T15:56:27,42.805,6.029,CST-1368DR,4665,5161,11786,01.126,551
2022-07-10T15:59:29,42.805,6.029,CST-1368DR,4666,5177,11820,01.114,551
2022-07-10T16:02:31,42.805,6.029,CST-1368DR,4666,5176,11819,01.114,551
2022-07-10T16:05:32,42.805,6.029,CST-1368DR,4665,5161,11787,01.125,551
2022-07-10T16:08:34,42.805,6.029,CST-1368DR,4665,5158,11779,01.128,551
2022-07-10T16:11:35,42.805,6.029,CST-1368DR,4665,5176,11821,01.114,551
2022-07-10T16:14:37,42.805,6.029,CST-1368DR,4666,5166,11796,01.122,551
2022-07-10T16:17:39,42.805,6.029,CST-1368DR,4666,5174,11813,01.116,551
2022-07-10T16:20:40,42.805,6.029,CST-1368DR,4666,5178,11823,01.113,551
2022-07-10T16:23:42,42.805,6.029,CST-1368DR,4666,5168,11801,01.120,551
2022-07-10T16:26:43,42.805,6.029,CST-1368DR,4666,5172,11809,01.118,551
2022-07-10T16:29:45,42.805,6.029,CST-1368DR,4666,5166,11794,01.123,551
2022-07-10T16:32:46,42.805,6.029,CST-1368DR,4665,5159,11783,01.127,551
2022-07-10T16:35:48,42.805,6.029,CST-1368DR,4666,5166,11795,01.122,551